Regional Weather Roundup
Issued by NWS Grand Forks, ND

Home | Current Version | Previous Version | Graphics & Text | Print | Product List | Glossary On
Versions: 1 2 3 4 5 6 7 8 9 10 11 12 13 14 15 16 17 18 19 20 21 22 23 24 25 26 27 28 29 30 31 32 33 34 35 36 37 38 39 40 41 42 43 44 45 46 47 48 49 50
000
ASUS43 KFGF 260331
RWRFGF
PRAIRIE TO PINES  WEATHER ROUNDUP
NATIONAL WEATHER SERVICE EASTERN NORTH DAKOTA/GRAND FORKS ND
1000 PM CDT TUE APR 25 2017

 **SATELLITE DATA USED TO AUGMENT SKY COVER AT AUTOMATED STATIONS**
 *****  WEATHER ACROSS EASTERN NORTH DAKOTA  *****

CITY           SKY/WX    TMP DP  RH WIND       PRES   REMARKS
GRAND FORKS    CLOUDY    35  28  75 NE18      29.90R WCI  24
GRAND FRKS AFB CLOUDY    34  27  76 NE15      29.91R WCI  24
DEVILS LAKE    FAIR      34  28  79 NE13      29.93R WCI  25
FARGO          CLOUDY    34  28  79 N18G31    29.82R WCI  23
WAHPETON ARPT  CLOUDY    34  30  86 N18G25    29.76F WCI  23
$$

 ***** WEATHER ACROSS CENTRAL AND WESTERN NORTH DAKOTA  *****

CITY           SKY/WX    TMP DP  RH WIND       PRES   REMARKS
BISMARCK       CLOUDY    37  28  70 NE13      29.92R
MINOT          CLOUDY    37  25  61 NE10      29.96R
JAMESTOWN      CLOUDY    32  26  78 N20G26    29.85F WCI  20
MINOT AFB      FAIR      37  25  62 NE13      29.96R
GARRISON         N/A     35  26  69 NE7       29.93R
WILLISTON      CLOUDY    37  26  64 N7        29.98R
DICKINSON      CLOUDY    31  24  75 N7        29.91R WCI  24
HETTINGER      CLOUDY    31  25  78 N9        29.93R WCI  23
$$

 *****  OTHER AIRPORT OBSERVATIONS IN OUR AREA  *****

CITY           SKY/WX    TMP DP  RH WIND       PRES   REMARKS
WALHALLA       NOT AVBL
GRAFTON AIRPOR MOCLDY    32  28  86 NE13      29.96R WCI  22
VALLEY CITY AR FLURRIES  32  32 100 NE18      29.85S WCI  20
CANDO          NOT AVBL
CAVALIER APRT  FAIR      34  27  75 NE8       29.96R
GWINNER        CLOUDY    34  30  86 MISG      29.79F
SHEYENNE NWR     N/A     33  27  78 N16       29.95  WCI  23
ROLLA          FAIR      32  25  74 N16       29.96R WCI  21
 ***** THE ABOVE OBSERVATIONS ARE NON NWS ARE NOT QUALITY
       CONTROLLED AND MAY MIS-REPORT RAIN FOR SNOW...
$$

  *****  WEATHER ACROSS NORTHERN MINNESOTA  *****

CITY           SKY/WX    TMP DP  RH WIND       PRES   REMARKS
FLAG ISLAND    CLOUDY    30  23  74 E13G18    29.96R WCI  20
WARROAD        CLOUDY    30  27  86 NE23G33   29.94S WCI  17
ROSEAU         CLOUDY    30  25  80 NE18G26   29.93S WCI  18
HALLOCK        CLOUDY    34  27  75 NE15G21   29.94S WCI  24
THF RVR FALLS  CLOUDY    31  26  82 NE24G31   29.88R WCI  17
BAUDETTE       CLOUDY    29  22  75 NE17G30   29.91R WCI  17
WASKISH        CLOUDY    30  27  86 NE15G26   29.87R WCI  19
CROOKSTON      CLOUDY    32  27  80 NE16G26   29.88S WCI  21
STEPHEN NDAWN    N/A     32  27  80 NE20        N/A  WCI  20
GREENBUSH NDAW   N/A     30  27  86 NE20        N/A  WCI  18
$$
  *****  WEATHER ACROSS CENTRAL AND WEST MINNESOTA  *****

CITY           SKY/WX    TMP DP  RH WIND       PRES   REMARKS
FOSSTON        CLOUDY    30  27  86 NE14G25   29.83R WCI  20
BEMIDJI        CLOUDY    30  27  89 NE13      29.81R WCI  20
PARK RAPIDS    CLOUDY    33  27  78 NE13G24   29.75R WCI  24
ELBOW LAKE     CLOUDY    38  35  87 E14G20    29.71S
WADENA         LGT RAIN  34  30  86 N14       29.71S WCI  24
DETROIT LAKES  DRIZZLE   34  32  93 NE13G22   29.76R WCI  25
MOORHEAD       CLOUDY    34  28  80 N20G26    29.82R WCI  22
FERGUS FALLS   CLOUDY    37  34  87 NE12G18   29.74R
MORRIS MN      DRIZZLE   39  37  93 N13       29.68S
STAPLES        LGT RAIN  34  32  93 N9        29.71S
$$
  *****  WEATHER ELSEWHERE ACROSS MINNESOTA  *****

CITY           SKY/WX    TMP DP  RH WIND       PRES   REMARKS
DULUTH         LGT RAIN  40  38  93 NE8       29.73R FOG
INTRNTL FALLS  CLOUDY    29  22  75 NE15G24   29.89S WCI  18
ELY            CLOUDY    28  27  93 NE12G17   29.81S WCI  18
CLOQUET        RAIN      39  37  93 NE8       29.72S
WHEATON        CLOUDY    37  32  81 NW18G26   29.76R
BRAINERD       LGT RAIN  37  35  92 N12       29.71R
HIBBING        FRZ RAIN  29  27  92 N14G24    29.78R WCI  18
ALEXANDRIA     CLOUDY    38  35  89 NE14      29.68S
SAINT CLOUD    LGT RAIN  47  45  93 NE10G23   29.62S
MINNEAPOLIS    LGT RAIN  54  51  90 NE10      29.55F FOG
$$

  *****  WEATHER ACROSS SOUTH DAKOTA  *****

CITY           SKY/WX    TMP DP  RH WIND       PRES   REMARKS
SIOUX FALLS    CLOUDY    37  37 100 N17       29.66S
BROOKINGS      MIX PCPN  35  33  92 N17       29.67S WCI  25
WATERTOWN      CLOUDY    33  31  92 N22G28    29.70S WCI  21
HURON          CLOUDY    33  31  92 N20G26    29.77F WCI  21
SISSETON         N/A     35  32  88 N22       29.75R WCI  23
ABERDEEN       CLOUDY    33  26  75 N16       29.81R WCI  23
MITCHELL       CLOUDY    35  32  88 N17G31    29.76S WCI  25
PIERRE         CLOUDY    31  28  89 N10       29.85R WCI  22
MOBRIDGE       CLOUDY    35  25  66 N20       29.84S WCI  24
RAPID CITY     FLURRIES  28  25  88 N16       29.90R WCI  16
$$

  *****  SOME WEATHER IN NEARBY STATES *****

CITY           SKY/WX    TMP DP  RH WIND       PRES   REMARKS
GLASGOW MT     CLOUDY    40  22  48 E14       29.95R
GREAT FALLS MT LGT RAIN  39  36  89 N6        29.84R
CHEYENNE WY    CLOUDY    29  22  75 N18G28    29.80R WCI  16
SCOTTSBLUFF NE CLOUDY    32  25  75 N13       29.88R WCI  22
OMAHA NE       RAIN      43  39  86 N17       29.59S
DES MOINES IA  LGT RAIN  53  49  86 NW16      29.48R
DAVENPORT IA   FAIR      69  50  50 SE12      29.47S
CHICAGO IL     CLOUDY    69  52  54 S9        29.57R
EAU CLAIRE WI  CLOUDY    55  54  96 NE8       29.55S
LA CROSSE WI   CLOUDY    60  52  74 N3        29.50F
$$

  *****  SOME NATIONAL WEATHER *****

CITY           SKY/WX    TMP DP  RH WIND       PRES   REMARKS
LA GUARDIA NY  LGT RAIN  53  50  89 NE14      29.89R
RALEIGH NC     CLOUDY    62  59  90 VRB5      29.75R
ATLANTA GA     FAIR      67  56  67 NW3       29.78R
NEW ORLEANS LA FAIR      68  61  78 S7        29.76R
OKLAHOMA CITY  TSTM      64  61  90 VRB5G16   29.48R FOG
ALBUQUERQUE NM MOCLDY    47  38  71 N10       29.77R
SALT LAKE CITY MOCLDY    49  37  63 SE5       29.91R
LOS ANGELES CA FAIR      65  50  58 W6        29.88R
BOISE ID       MOCLDY    54  31  41 CALM      29.87F
SEATTLE WA     CLOUDY    51  45  79 W6        29.80S
$$

*** WEATHER ACROSS MANITOBA...SASKATCHEWAN AND ONTARIO ***
                ***ONTARIO***

CITY           SKY/WX    TMP DP  RH WIND       PRES   REMARKS
GERALDTON      LGTSLEET  18  14  86 NE14G21   30.00R WCI   4
THUNDER BAY    FRZ RAIN  27  23  86 N7        29.88R WCI  19
SIOUX LOOKOUT  FLURRIES  23  18  80 E9        30.02  WCI  13
TORONTO        PTCLDY    50  46  87 E10G17    29.85F
BIG TROUT LK   CLEAR     18   5  57 E9        30.28R WCI   6
PICKLE LAKE    NOT AVBL
DRYDEN         CLOUDY    25  21  86 NE17G35   29.97R WCI  11
KENORA         FLURRIES  27  21  80 NE14G30   29.96F WCI  15
$$
                *** MANITOBA***

CITY           SKY/WX    TMP DP  RH WIND       PRES   REMARKS
BRANDON        MOCLDY    30  18  59 NE16      30.04F WCI  19
DAUPHIN        CLEAR     27  16  63 NE10      30.13S WCI  17
ISLAND LAKE    CLEAR     23   3  42 NE5       30.25R WCI  17
PILOT MOUND      N/A     34  23  64 N14         N/A  WCI  24
THE PAS        PTCLDY    28   3  34 E5        30.20S WCI  23
THOMPSON       CLEAR     19  -6  32 E5        30.29R WCI  13
WINNIPEG       MOCLDY    36  25  64 NE9       30.00S
LYNN LAKE      CLEAR     25   5  42 S5        30.21S WCI  19
CHURCHILL      CLEAR      1  -4  78 S14       30.36S WCI -17
GILLAM         CLEAR      7  -4  61 E3        30.36S
$$
                ***SASKATCHEWAN***

CITY           SKY/WX    TMP DP  RH WIND       PRES   REMARKS
ESTEVAN        PTCLDY    32  25  74 NE9       30.00R WCI  24
KINDERSLEY     LGT SNOW  28  28 100 E14       29.96S VSB 3/4 WCI  17
LLOYDMINSTER   LGT SNOW  30  28  93 SE12      30.01S WCI  21
PRINCE ALBERT  PTCLDY    28  16  59 NE6       30.08S WCI  22
REGINA         MOCLDY    36  25  64 E5        30.03S
YORKTON        CLEAR     28  19  69 NE6       30.08R WCI  22
N. BATTLEFORD  MIX PCPN  32  23  69 E13       30.06S WCI  22
LA RONGE       PTCLDY    32   7  34 E8        30.12S WCI  25
SASKATOON      CLOUDY    36  21  55 E8        30.06R
SWIFT CURRENT  CLOUDY    32  27  80 SE12      29.93S WCI  23
$$
NOTE: THESE ARE AUTOMATED STATIONS WITH LIMITED QUALITY CONTROL
      "FAIR" INDICATES FEW OR NO CLOUDS BELOW 12,000 FEET WITH NO
      SIGNIFICANT WEATHER AND/OR OBSTRUCTIONS TO VISIBILITY.
      SKY/WX - SKY CONDITION AND SIGNIFICANT WEATHER.
      TMP - AIR TEMPERATURE.    DP   - DEWPOINT TEMPERATURE.
      RH  - RELATIVE HUMIDITY.  PRES - PRESSURE.
      HX  - HEAT INDEX.         WCI  - WIND CHILL INDEX.
$




USA.gov is the U.S. government's official web portal to all federal, state and local government web resources and services.